www.pogodaiklimat.ru

Погода и климат >> Архив погоды >> Шри Ланка >> Анурадхапура


ПОГОДА в Анурадхапуре

  • Прогноз погоды в Анурадхапуре
  • Монитор погоды в Анурадхапуре

АРХИВ ПОГОДЫ в Анурадхапуре

Время (UTC), дата Ветер
(напр.,м/с)
 
Видим.   Явления Облачность Т
(С)
Тd
(С)
f
(%)
Тe
(С)
Тes
(С)
Комфортность P
(гПа)
Po
(гПа)
Тmin
(С)
Tmax
(С)
R
(мм)
R24
(мм)
S
(см)
18 13.09 ЮЗ 2 20 км 9/1 540 м
[Cu hum Ac trans Cs]
+25.6 +23.3 87 +34 +34 очень
душно
1012.1 1001.5
21 13.09 ЮЗ 3 20 км 1/0
[Ci fib]
+25.2 +23.4 90 +34 +34 очень
душно
1010.1 999.5
00 14.09 ЮЗ 3 20 км 3/0
[Ci fib]
+25.0 +23.2 90 +33 +33 очень
душно
1010.8 1000.2
03 14.09 ЮЗ 2 20 км 3/0
[Ci fib]
+28.8 +22.6 69 +38 +45 очень
душно
1012.5 1002.0 +25.0
06 14.09 ЮЗ 2 20 км 3/3 540 м
[Cu hum]
+32.8 +23.0 56 +43 +58 опасность
перегрева
1010.8 1000.4
09 14.09 ЮЗ 6 20 км 5/5 540 м
[Cb calv]
+33.8 +22.9 53 +44 +47 опасность
перегрева
1008.0 997.7
12 14.09 ЮЗ 2 20 км 9/1 540 м
[Cu hum Ac As Cs]
+30.2 +22.9 65 +40 +40 очень
душно
1008.4 998.0 +34.3
15 14.09 ЮЗ 1 20 км 9/0
[Cs]
+28.0 +23.7 77 +38 +38 очень
душно
1011.5 1001.0
21 14.09 ЮЗ 3 20 км 3/3 540 м
[Cu hum]
+26.0 +24.0 89 +36 +36 очень
душно
1009.2 998.6
00 15.09 штиль 0 20 км 3/0
[Ac trans]
+25.4 +23.9 91 +35 +35 очень
душно
1009.4 998.8
03 15.09 ЮЗ 3 20 км 4/4 540 м
[Cu hum]
+28.8 +24.3 77 +40 +44 очень
душно
1011.7 1001.2 +25.2
06 15.09 ЮЗ 4 20 км слаб. ливневой дождь 10/6 540 м
[Cu hum Ac As]
+25.8 +23.5 87 +35 +37 очень
душно
1011.7 1001.1 1
09 15.09 ЮЗ 4 20 км {ливн. осадки} 9/6 540 м
[Cu hum Ac As]
+28.0 +23.7 77 +38 +40 очень
душно
1008.7 998.2 0.0
15 15.09 ЮЗ 2 20 км 5/5 540 м
[Cu hum]
+25.4 +23.7 90 +35 +35 очень
душно
1010.8 1000.2
18 15.09 Ю 2 20 км 8/0
[As trans]
+25.0 +23.5 91 +34 +34 очень
душно
1011.1 1000.5
21 15.09 Ю 3 20 км 9/0
[Ac trans]
+25.0 +23.5 91 +34 +34 очень
душно
1009.1 998.5
00 16.09 штиль 0 20 км 10/5 540 м
[Cu hum Ac As]
+24.7 +23.3 92 +33 +33 очень
душно
1009.5 998.9
03 16.09 штиль 0 20 км {ливн. осадки} 10/5 540 м
[Cu hum Ac As]
+25.1 +23.6 91 +34 +35 очень
душно
1011.5 1000.9 +24.5 0.2
06 16.09 ЮЗ 3 20 км {ливн. осадки} 9/5 540 м
[Cu hum Ac As]
+29.4 +23.3 70 +40 +44 очень
душно
1009.6 999.1 0.0
09 16.09 З 4 20 км 6/6 540 м
[Cu hum]
+30.7 +22.7 62 +40 +44 очень
душно
1007.4 997.0
12 16.09 Ю 4 20 км 9/5 540 м
[Cu hum Ac As]
+27.6 +23.1 77 +37 +37 очень
душно
1007.4 996.9 +31.4
15 16.09 Ю 2 20 км 8/8 540 м
[Cu hum]
+26.1 +23.8 87 +36 +36 очень
душно
1008.5 997.9
18 16.09 ЮЗ 2 20 км 10/0
[Ac As]
+25.9 +23.9 89 +36 +36 очень
душно
1009.1 998.5
21 16.09 ЮЗ 3 20 км 9/4 540 м
[Cu hum Ac As]
+25.6 +24.0 91 +35 +35 очень
душно
1007.7 997.1
00 17.09 ЮЗ 3 20 км 6/4 540 м
[Cu hum Ci fib]
+25.0 +23.8 93 +34 +34 очень
душно
1007.7 997.1
03 17.09 ЮЗ 1 20 км 9/8 540 м
[Cu hum Cs]
+28.2 +24.5 80 +40 +41 очень
душно
1009.3 998.8 +25.0
06 17.09 ЮЗ 2 20 км 5/5 540 м
[Cu hum]
+32.7 +23.9 60 +44 +55 опасность
перегрева
1008.1 997.8
09 17.09 ЮЗ 4 20 км 3/3 540 м
[Cu hum]
+33.3 +21.3 49 +41 +48 опасность
перегрева
1006.4 996.1
15 17.09 ЮЗ 2 20 км ясно +27.5 +23.5 79 +37 +37 очень
душно
1007.9 997.4
18 17.09 ЮЗ 3 20 км 4/3 540 м
[Cu hum Cs]
+26.2 +23.9 87 +36 +36 очень
душно
1008.4 997.8
21 17.09 штиль 0 20 км 8/8 540 м
[Cu hum]
+25.7 +23.7 89 +35 +35 очень
душно
1007.1 996.5
00 18.09 ЮЗ 2 20 км 1/1 540 м
[Cu hum]
+25.3 +23.7 91 +34 +34 очень
душно
1007.6 997.0
03 18.09 ЮЗ 2 20 км 9/4 540 м
[Cu hum Ac As Ci fib]
+28.0 +24.3 80 +39 +42 очень
душно
1009.4 998.9 +25.1
06 18.09 ЮЗ 1 20 км {ливн. осадки} 6/5 540 м
[Cb cap Ci fib]
+27.0 +25.3 90 +39 +51 опасность
солнечного
удара
1009.3 998.8 1
09 18.09 ЮЗ 2 20 км {ливн. осадки} 9/6 540 м
[Cb cap Ac As]
+26.7 +24.3 87 +37 +40 очень
душно
1007.2 996.7 9
12 18.09 штиль 0 20 км {ливн. осадки} 9/1 540 м
[Cu hum Ac trans Cs]
+27.0 +24.1 84 +37 +38 очень
душно
1007.5 997.0 +31.8 9
15 18.09 ЮЗ 2 20 км 4/0
[Ci fib]
+25.7 +23.9 90 +35 +35 очень
душно
1009.3 998.7
18 18.09 ЮЗ 3 20 км 5/0
[Ci fib]
+25.6 +24.0 91 +35 +35 очень
душно
1009.5 998.9
21 18.09 ЮЗ 4 20 км 6/6 540 м
[Cu hum]
+25.2 +24.1 94 +35 +35 очень
душно
1008.2 997.6
00 19.09 ЮЗ 2 20 км 5/1 540 м
[Cu hum Ac trans Ci fib]
+24.8 +23.6 93 +34 +34 очень
душно
1008.3 997.7
03 19.09 ЮЗ 2 20 км {ливн. осадки} 5/3 540 м
[Cu hum Ci fib]
+27.0 +23.3 80 +36 +41 очень
душно
1010.0 999.5 +24.6 0.9
06 19.09 ЮЗ 4 20 км {ливн. осадки} 8/6 540 м
[Cu med, cong Ci fib]
+30.4 +24.5 71 +43 +48 опасность
перегрева
1009.3 998.9
09 19.09 ЮЗ 1 20 км {ливн. осадки} 8/4 540 м
[Cu med, cong Ac trans Cs]
+26.4 +24.5 89 +37 +44 очень
душно
1007.9 999.3 3
15 19.09 ЮЗ 2 20 км 9/4 540 м
[Cu hum Ac As]
+25.7 +24.0 90 +35 +35 очень
душно
1010.1 999.5
18 19.09 Ю 2 20 км 5/1 540 м
[Cu hum Ci fib]
+25.1 +23.5 91 +34 +34 очень
душно
1010.6 1000.0
21 19.09 ЮЗ 3 20 км 5/1 540 м
[Cu hum Ci fib]
+24.9 +22.9 89 +33 +33 очень
душно
1008.3 997.7
03 20.09 ЮЗ 1 20 км 6/3 540 м
[Cu hum Ac trans]
+27.8 +23.7 78 +38 +42 очень
душно
1010.4 999.9 +24.3
06 20.09 ЮЗ 3 20 км в посл. час ливневой дождь 8/5 540 м
[Cu med, cong Ac trans Ci fib]
+29.1 +25.3 80 +42 +49 опасность
перегрева
1009.7 999.2 0.2
09 20.09 ЮЗ 2 20 км 8/6 540 м
[Cu med, cong Ci fib]
+32.1 +23.7 61 +43 +48 опасность
перегрева
1006.8 996.5
12 20.09 ЮЗ 3 20 км 8/1 540 м
[Cu hum Cs]
+30.0 +23.0 66 +40 +40 очень
душно
1006.9 996.5 +32.9
15 20.09 ЮЗ 1 20 км 8/3 540 м
[Cu hum Cs]
+27.4 +23.3 78 +37 +37 очень
душно
1009.2 998.7

 

Местоположение метеостанции Анурадхапура (Шри Ланка): широта 8.33 долгота 80.42 высота над уровнем моря 89 м.

В архиве по умолчанию представлена погода в Анурадхапуре за последнюю неделю. Архивные данные за месяц целиком и за предыдущие месяцы, начиная с января 2011 года, Вы можете получить, выбрав интересующий диапазон дат из раскрывающегося списка и нажав кнопку "Ввод!".


*Определитесь, кто Вы:
робот инопланетянин человек

Внимание! Время в таблицах - всемирное. Для получения местного времени необходимо прибавить поправку, которая равна 6 ч.

Смотрите также архив погоды в соседних городах и на ближайших метеорологических станциях:

Погода в Маха Иллуппаллама (Шри Ланка) (24 км)
Погода в Вавунии (Шри Ланка) (48 км)
Погода в Путталаме (Шри Ланка) (73 км)
Погода в Маннаре (Шри Ланка) (91 км)
Погода в Тринкомали (Шри Ланка) (95 км)
Погода в Курунегала (Шри Ланка) (96 км)
Погода в Канди (Шри Ланка) (114 км)
Погода в Аэропорту Бандаранаайк (Шри Ланка) (142 км)
Погода в Джафне (Шри Ланка) (153 км)
Погода в Нувара Элия (Шри Ланка) (156 км)

Пояснения к столбцам:

Ветер - указаны скорость ветра в м/с - средняя за 10 мин, порывы в срок и между сроками (в фигурных скобках) и направление, откуда дует ветер: С - северный, СВ - северо-восточный, В - восточный, ЮВ - юго-восточный, Ю - южный, ЮЗ - юго-западный, З - западный, СЗ - северо-западный.
Видимость - горизонтальная дальность видимости в метрах или километрах. При видимости от 1 до 10 км при отсутствии осадков обычно наблюдается дымка, при ухудшении видимости до 1 км и менее - туман. В сухую погоду видимость может ухудшаться дымом, пылью или мглою.
Явления - указаны атмосферные явления, наблюдавшиеся в срок или в последний час перед сроком; фигурными скобками обозначены явления, наблюдавшиеся между сроками (за 1-3 часа до срока); квадратными скобками обозначены град или гололедные отложения с указанием их диаметра в мм.
Облачность - указаны через наклонную черту общая и нижняя облачность в баллах и высота нижней границы облаков в метрах; квадратными скобками обозначены формы облаков: Ci - перистые, Cs - перисто-слоистые, Cc - перисто-кучевые, Ac - высококучевые, As - высокослоистые, Sc - слоисто-кучевые, Ns - слоисто-дождевые, Cu - кучевые, Cb - кучево-дождевые. Подробнее классификацию облаков см. в Атласе облаков (PDF).
T - Температура воздуха - температура, измеренная на высоте 2 м над землей.
Td - Температура точки росы - температура, при понижении до которой содержащийся в воздухе водяной пар достигнет насыщения.
f - Относительная влажность воздуха - влажноcть воздуха, измеренная на высоте 2 м над землей.
Te - Эффективная температура - температура, которую ощущает одетый по сезону человек в тени. Характеристика душности погоды. При расчете учитывается влияние влажности воздуха и скорости ветра на теплоощущения человека.
Tes - Эффективная температура на солнце - температура, которую ощущает человек, с поправкой на солнечный нагрев. Характеристика знойности погоды. Зависит от высоты солнца над горизонтом, облачности и скорости ветра. Ночью, в пасмурную погоду, а также при ветре 12 м/с и более поправка равна нулю.
P - Атмосферное давление - приведенное к уровню моря атмосферное давление.
Po - Атмосферное давление - измеренное на уровне метеостанции атмосферное давление.
Tmin - Минимальная температура - минимум температуры воздуха на высоте 2 м над землей.
Tmax - Максимальная температура - максимум температуры воздуха на высоте 2 м над землей.
R - Количество осадков - Количество выпавших осадков за период времени, мм. При наведении курсора мыши на число - период времени, за который выпало указанное количество осадков.
R24 - Количество осадков - Количество выпавших осадков за 24 часа, мм.
S - Снежный покров - Высота снежного покрова, см. При наведении курсора мыши на число - состояние снежного покрова и степень покрытия местности в баллах.